Time,TemperatureF,DewpointF,PressureIn,WindDirection,WindDirectionDegrees,WindSpeedMPH,WindSpeedGustMPH,Humidity,HourlyPrecipIn,Conditions,Clouds,dailyrainin,SoftwareType,DateUTC
2013-07-11 00:00:00,72.5,61.8,29.73,North,0,0.0,0.0,69,0.00,,,0.00,WUHU216HW,2013-07-11 05:00:00,
2013-07-11 00:05:00,72.4,61.7,29.73,North,0,0.0,0.0,69,0.00,,,0.00,WUHU216HW,2013-07-11 05:05:00,
2013-07-11 00:10:00,72.4,61.7,29.73,North,0,0.0,0.0,69,0.00,,,0.00,WUHU216HW,2013-07-11 05:10:00,
2013-07-11 00:15:00,72.4,62.1,29.73,North,0,0.0,0.0,70,0.00,,,0.00,WUHU216HW,2013-07-11 05:15:00,
2013-07-11 00:20:00,72.4,62.1,29.73,North,0,0.0,0.0,70,0.00,,,0.00,WUHU216HW,2013-07-11 05:20:00,
2013-07-11 00:25:00,72.2,61.9,29.73,North,0,0.0,0.0,70,0.00,,,0.00,WUHU216HW,2013-07-11 05:25:00,
2013-07-11 00:30:00,72.0,61.7,29.73,North,0,0.0,0.0,70,0.00,,,0.00,WUHU216HW,2013-07-11 05:30:00,
2013-07-11 00:35:00,72.0,61.7,29.73,North,0,0.0,0.0,70,0.00,,,0.00,WUHU216HW,2013-07-11 05:35:00,
2013-07-11 00:40:00,71.8,61.6,29.74,North,0,0.0,0.0,70,0.00,,,0.00,WUHU216HW,2013-07-11 05:40:00,
2013-07-11 00:46:00,71.6,61.4,29.73,North,0,0.0,0.0,70,0.00,,,0.00,WUHU216HW,2013-07-11 05:46:00,
2013-07-11 00:51:00,71.5,61.2,29.73,North,0,0.0,0.0,70,0.00,,,0.00,WUHU216HW,2013-07-11 05:51:00,
2013-07-11 00:56:00,71.3,61.0,29.73,North,0,0.0,0.0,70,0.00,,,0.00,WUHU216HW,2013-07-11 05:56:00,
2013-07-11 01:01:00,71.3,61.0,29.73,North,0,0.0,0.0,70,0.00,,,0.00,WUHU216HW,2013-07-11 06:01:00,
2013-07-11 01:06:00,70.9,61.0,29.73,North,0,0.0,0.0,71,0.00,,,0.00,WUHU216HW,2013-07-11 06:06:00,
2013-07-11 01:11:00,70.9,61.0,29.73,North,0,0.0,0.0,71,0.00,,,0.00,WUHU216HW,2013-07-11 06:11:00,
2013-07-11 01:16:00,70.7,60.8,29.73,North,0,0.0,0.0,71,0.00,,,0.00,WUHU216HW,2013-07-11 06:16:00,
2013-07-11 01:21:00,70.9,61.0,29.73,North,0,0.0,0.0,71,0.00,,,0.00,WUHU216HW,2013-07-11 06:21:00,
2013-07-11 01:26:00,70.9,61.0,29.73,North,0,0.0,0.0,71,0.00,,,0.00,WUHU216HW,2013-07-11 06:26:00,
2013-07-11 01:31:00,70.9,61.4,29.73,North,0,0.0,0.0,72,0.00,,,0.00,WUHU216HW,2013-07-11 06:31:00,
2013-07-11 01:36:00,70.9,61.4,29.73,North,0,0.0,0.0,72,0.00,,,0.00,WUHU216HW,2013-07-11 06:36:00,
2013-07-11 01:41:00,70.9,61.4,29.73,North,0,0.0,0.0,72,0.00,,,0.00,WUHU216HW,2013-07-11 06:41:00,
2013-07-11 01:46:00,70.9,61.4,29.73,North,0,0.0,0.0,72,0.00,,,0.00,WUHU216HW,2013-07-11 06:46:00,
2013-07-11 01:51:00,70.9,61.4,29.73,North,0,0.0,0.0,72,0.00,,,0.00,WUHU216HW,2013-07-11 06:51:00,
2013-07-11 01:56:00,70.9,61.4,29.73,North,0,0.0,0.0,72,0.00,,,0.00,WUHU216HW,2013-07-11 06:56:00,
2013-07-11 02:01:00,70.9,61.4,29.73,North,0,0.0,0.0,72,0.00,,,0.00,WUHU216HW,2013-07-11 07:01:00,
2013-07-11 02:06:00,70.6,61.0,29.73,North,0,0.0,0.0,72,0.00,,,0.00,WUHU216HW,2013-07-11 07:06:00,
2013-07-11 02:11:00,70.4,61.3,29.73,North,0,0.0,0.0,73,0.00,,,0.00,WUHU216HW,2013-07-11 07:11:00,
2013-07-11 02:16:00,70.4,61.3,29.73,North,0,0.0,0.0,73,0.00,,,0.00,WUHU216HW,2013-07-11 07:16:00,
2013-07-11 02:21:00,70.2,61.1,29.73,North,0,0.0,0.0,73,0.00,,,0.00,WUHU216HW,2013-07-11 07:21:00,
2013-07-11 02:26:00,70.0,60.9,29.73,North,0,0.0,0.0,73,0.00,,,0.00,WUHU216HW,2013-07-11 07:26:00,
2013-07-11 02:31:00,69.8,60.8,29.73,North,0,0.0,0.0,73,0.00,,,0.00,WUHU216HW,2013-07-11 07:31:00,
2013-07-11 02:36:00,69.7,60.9,29.73,North,0,0.0,0.0,74,0.00,,,0.00,WUHU216HW,2013-07-11 07:36:00,
2013-07-11 02:41:00,69.5,60.8,29.73,North,0,0.0,0.0,74,0.00,,,0.00,WUHU216HW,2013-07-11 07:41:00,
2013-07-11 02:46:00,69.5,60.8,29.73,North,0,0.0,0.0,74,0.00,,,0.00,WUHU216HW,2013-07-11 07:46:00,
2013-07-11 02:51:00,69.5,60.8,29.73,North,0,0.0,0.0,74,0.00,,,0.00,WUHU216HW,2013-07-11 07:51:00,
2013-07-11 02:56:00,69.5,60.8,29.74,North,0,0.0,0.0,74,0.00,,,0.00,WUHU216HW,2013-07-11 07:56:00,
2013-07-11 03:01:00,69.5,60.8,29.73,North,0,0.0,0.0,74,0.00,,,0.00,WUHU216HW,2013-07-11 08:01:00,
2013-07-11 03:06:00,69.5,60.8,29.73,North,0,0.0,0.0,74,0.00,,,0.00,WUHU216HW,2013-07-11 08:06:00,
2013-07-11 03:11:00,69.5,60.8,29.73,North,0,0.0,0.0,74,0.00,,,0.00,WUHU216HW,2013-07-11 08:11:00,
2013-07-11 03:16:00,69.3,60.6,29.73,North,0,0.0,0.0,74,0.00,,,0.00,WUHU216HW,2013-07-11 08:16:00,
2013-07-11 03:21:00,69.1,60.5,29.73,North,0,0.0,0.0,74,0.00,,,0.00,WUHU216HW,2013-07-11 08:21:00,
2013-07-11 03:26:00,68.8,60.1,29.73,North,0,0.0,0.0,74,0.00,,,0.00,WUHU216HW,2013-07-11 08:26:00,
2013-07-11 03:31:00,68.8,60.5,29.73,North,0,0.0,0.0,75,0.00,,,0.00,WUHU216HW,2013-07-11 08:31:00,
2013-07-11 03:36:00,68.6,60.3,29.73,North,0,0.0,0.0,75,0.00,,,0.00,WUHU216HW,2013-07-11 08:36:00,
2013-07-11 03:41:00,68.4,60.2,29.73,North,0,0.0,0.0,75,0.00,,,0.00,WUHU216HW,2013-07-11 08:41:00,
2013-07-11 03:46:00,68.2,60.0,29.73,North,0,0.0,0.0,75,0.00,,,0.00,WUHU216HW,2013-07-11 08:46:00,
2013-07-11 03:51:00,68.2,60.0,29.73,North,0,0.0,0.0,75,0.00,,,0.00,WUHU216HW,2013-07-11 08:51:00,
2013-07-11 03:56:00,68.4,60.2,29.73,North,0,0.0,0.0,75,0.00,,,0.00,WUHU216HW,2013-07-11 08:56:00,
2013-07-11 04:01:00,68.4,60.2,29.73,North,0,0.0,0.0,75,0.00,,,0.00,WUHU216HW,2013-07-11 09:01:00,
2013-07-11 04:06:00,68.4,60.2,29.73,North,0,0.0,0.0,75,0.00,,,0.00,WUHU216HW,2013-07-11 09:06:00,
2013-07-11 04:11:00,68.2,60.0,29.73,North,0,0.0,0.0,75,0.00,,,0.00,WUHU216HW,2013-07-11 09:11:00,
2013-07-11 04:16:00,68.0,59.9,29.72,North,0,0.0,0.0,75,0.00,,,0.00,WUHU216HW,2013-07-11 09:16:00,
2013-07-11 04:21:00,68.0,59.5,29.73,North,0,0.0,0.0,74,0.00,,,0.00,WUHU216HW,2013-07-11 09:21:00,
2013-07-11 04:26:00,67.9,59.3,29.72,North,0,0.0,0.0,74,0.00,,,0.00,WUHU216HW,2013-07-11 09:26:00,
2013-07-11 04:31:00,67.7,58.8,29.72,North,0,0.0,0.0,73,0.00,,,0.00,WUHU216HW,2013-07-11 09:31:00,
2013-07-11 04:36:00,67.7,58.8,29.72,North,0,0.0,0.0,73,0.00,,,0.00,WUHU216HW,2013-07-11 09:36:00,
2013-07-11 04:41:00,67.9,59.0,29.72,North,0,0.0,0.0,73,0.00,,,0.00,WUHU216HW,2013-07-11 09:41:00,
2013-07-11 04:46:00,67.9,58.5,29.72,North,0,0.0,0.0,72,0.00,,,0.00,WUHU216HW,2013-07-11 09:46:00,
2013-07-11 04:51:00,67.9,58.5,29.72,North,0,0.0,0.0,72,0.00,,,0.00,WUHU216HW,2013-07-11 09:51:00,
2013-07-11 04:56:00,67.9,58.1,29.73,North,0,0.0,0.0,71,0.00,,,0.00,WUHU216HW,2013-07-11 09:56:00,
2013-07-11 05:01:00,67.9,58.1,29.73,North,0,0.0,0.0,71,0.00,,,0.00,WUHU216HW,2013-07-11 10:01:00,
2013-07-11 05:06:00,67.9,58.1,29.73,North,0,0.0,0.0,71,0.00,,,0.00,WUHU216HW,2013-07-11 10:06:00,
2013-07-11 05:11:00,67.9,57.8,29.73,North,0,0.0,0.0,70,0.00,,,0.00,WUHU216HW,2013-07-11 10:11:00,
2013-07-11 05:16:00,67.9,57.8,29.73,North,0,0.0,0.0,70,0.00,,,0.00,WUHU216HW,2013-07-11 10:16:00,
2013-07-11 05:21:00,67.7,57.6,29.73,North,0,0.0,0.0,70,0.00,,,0.00,WUHU216HW,2013-07-11 10:21:00,
2013-07-11 05:26:00,67.7,57.6,29.73,North,0,0.0,0.0,70,0.00,,,0.00,WUHU216HW,2013-07-11 10:26:00,
2013-07-11 05:31:00,67.5,57.4,29.73,North,0,0.0,0.0,70,0.00,,,0.00,WUHU216HW,2013-07-11 10:31:00,
2013-07-11 05:36:00,67.5,57.4,29.73,North,0,0.0,0.0,70,0.00,,,0.00,WUHU216HW,2013-07-11 10:36:00,
2013-07-11 05:41:00,67.3,57.2,29.73,North,0,0.0,0.0,70,0.00,,,0.00,WUHU216HW,2013-07-11 10:41:00,
2013-07-11 05:46:00,67.3,57.2,29.73,North,0,0.0,0.0,70,0.00,,,0.00,WUHU216HW,2013-07-11 10:46:00,
2013-07-11 05:51:00,67.3,57.2,29.74,North,0,0.0,0.0,70,0.00,,,0.00,WUHU216HW,2013-07-11 10:51:00,
2013-07-11 05:56:00,67.3,57.6,29.74,North,0,0.0,0.0,71,0.00,,,0.00,WUHU216HW,2013-07-11 10:56:00,
2013-07-11 06:01:00,67.3,57.2,29.74,North,0,0.0,0.0,70,0.00,,,0.00,WUHU216HW,2013-07-11 11:01:00,
2013-07-11 06:06:00,67.1,57.1,29.74,North,0,0.0,0.0,70,0.00,,,0.00,WUHU216HW,2013-07-11 11:06:00,
2013-07-11 06:11:00,67.0,57.2,29.74,North,0,0.0,0.0,71,0.00,,,0.00,WUHU216HW,2013-07-11 11:11:00,
2013-07-11 06:16:00,67.0,57.2,29.74,North,0,0.0,0.0,71,0.00,,,0.00,WUHU216HW,2013-07-11 11:16:00,
2013-07-11 06:21:00,66.8,56.7,29.74,North,0,0.0,0.0,70,0.00,,,0.00,WUHU216HW,2013-07-11 11:21:00,
2013-07-11 06:26:00,66.6,56.9,29.74,North,0,0.0,0.0,71,0.00,,,0.00,WUHU216HW,2013-07-11 11:26:00,
2013-07-11 06:31:00,66.6,57.2,29.74,North,0,0.0,0.0,72,0.00,,,0.00,WUHU216HW,2013-07-11 11:31:00,
2013-07-11 06:36:00,66.4,57.1,29.75,North,0,0.0,0.0,72,0.00,,,0.00,WUHU216HW,2013-07-11 11:36:00,
2013-07-11 06:41:00,66.2,56.9,29.75,North,0,0.0,0.0,72,0.00,,,0.00,WUHU216HW,2013-07-11 11:41:00,
2013-07-11 06:46:00,66.2,56.9,29.75,North,0,0.0,0.0,72,0.00,,,0.00,WUHU216HW,2013-07-11 11:46:00,
2013-07-11 06:51:00,66.2,56.9,29.75,North,0,0.0,0.0,72,0.00,,,0.00,WUHU216HW,2013-07-11 11:51:00,
2013-07-11 06:56:00,66.2,56.9,29.75,North,0,0.0,0.0,72,0.00,,,0.00,WUHU216HW,2013-07-11 11:56:00,
2013-07-11 07:01:00,66.2,56.9,29.74,North,0,0.0,0.0,72,0.00,,,0.00,WUHU216HW,2013-07-11 12:01:00,
2013-07-11 07:06:00,66.2,56.9,29.74,North,0,0.0,0.0,72,0.00,,,0.00,WUHU216HW,2013-07-11 12:06:00,
2013-07-11 07:11:00,66.4,56.7,29.73,North,0,0.0,0.0,71,0.00,,,0.00,WUHU216HW,2013-07-11 12:11:00,
2013-07-11 07:16:00,66.6,56.9,29.73,North,0,0.0,0.0,71,0.00,,,0.00,WUHU216HW,2013-07-11 12:16:00,
2013-07-11 07:21:00,67.1,57.4,29.74,North,0,0.0,0.0,71,0.00,,,0.00,WUHU216HW,2013-07-11 12:21:00,
2013-07-11 07:26:00,67.3,57.6,29.74,North,0,0.0,0.0,71,0.00,,,0.00,WUHU216HW,2013-07-11 12:26:00,
2013-07-11 07:31:00,67.7,58.0,29.74,North,0,0.0,0.0,71,0.00,,,0.00,WUHU216HW,2013-07-11 12:31:00,
2013-07-11 07:36:00,67.9,57.8,29.75,North,0,0.0,0.0,70,0.00,,,0.00,WUHU216HW,2013-07-11 12:36:00,
2013-07-11 07:41:00,68.0,58.0,29.75,North,0,0.0,0.0,70,0.00,,,0.00,WUHU216HW,2013-07-11 12:41:00,
2013-07-11 07:46:00,68.2,58.2,29.75,North,0,0.0,0.0,70,0.00,,,0.00,WUHU216HW,2013-07-11 12:46:00,
2013-07-11 07:51:00,68.4,58.3,29.76,North,0,0.0,0.0,70,0.00,,,0.00,WUHU216HW,2013-07-11 12:51:00,
2013-07-11 07:56:00,68.9,58.8,29.75,North,0,0.0,0.0,70,0.00,,,0.00,WUHU216HW,2013-07-11 12:56:00,
2013-07-11 08:01:00,70.0,59.3,29.75,North,0,0.0,0.0,69,0.00,,,0.00,WUHU216HW,2013-07-11 13:01:00,
2013-07-11 08:06:00,70.6,59.5,29.75,North,0,0.0,0.0,68,0.00,,,0.00,WUHU216HW,2013-07-11 13:06:00,
2013-07-11 08:11:00,71.1,59.6,29.75,North,0,0.0,0.0,67,0.00,,,0.00,WUHU216HW,2013-07-11 13:11:00,
2013-07-11 08:16:00,72.0,60.0,29.75,North,0,0.0,0.0,66,0.00,,,0.00,WUHU216HW,2013-07-11 13:16:00,
2013-07-11 08:21:00,72.7,60.7,29.76,North,0,0.0,0.0,66,0.00,,,0.00,WUHU216HW,2013-07-11 13:21:00,
2013-07-11 08:26:00,73.3,61.2,29.76,North,0,0.0,0.0,66,0.00,,,0.00,WUHU216HW,2013-07-11 13:26:00,
2013-07-11 08:31:00,74.0,61.0,29.75,North,0,0.0,0.0,64,0.00,,,0.00,WUHU216HW,2013-07-11 13:31:00,
2013-07-11 08:36:00,74.5,61.1,29.75,North,0,0.0,0.0,63,0.00,,,0.00,WUHU216HW,2013-07-11 13:36:00,
2013-07-11 08:41:00,75.1,61.2,29.76,North,0,0.0,0.0,62,0.00,,,0.00,WUHU216HW,2013-07-11 13:41:00,
2013-07-11 08:46:00,75.4,61.5,29.76,North,0,0.0,0.0,62,0.00,,,0.00,WUHU216HW,2013-07-11 13:46:00,
2013-07-11 08:51:00,76.0,62.0,29.76,North,0,0.0,0.0,62,0.00,,,0.00,WUHU216HW,2013-07-11 13:51:00,
2013-07-11 08:56:00,76.5,61.7,29.76,North,0,0.0,0.0,60,0.00,,,0.00,WUHU216HW,2013-07-11 13:56:00,
2013-07-11 09:01:00,76.7,61.3,29.76,North,0,0.0,0.0,59,0.00,,,0.00,WUHU216HW,2013-07-11 14:01:00,
2013-07-11 09:07:00,76.9,61.9,29.76,North,0,0.0,0.0,60,0.00,,,0.00,WUHU216HW,2013-07-11 14:07:00,
2013-07-11 09:12:00,77.2,62.3,29.76,North,0,0.0,0.0,60,0.00,,,0.00,WUHU216HW,2013-07-11 14:12:00,
2013-07-11 09:17:00,77.9,62.5,29.76,North,0,0.0,0.0,59,0.00,,,0.00,WUHU216HW,2013-07-11 14:17:00,
2013-07-11 09:22:00,78.1,62.6,29.76,North,0,0.0,0.0,59,0.00,,,0.00,WUHU216HW,2013-07-11 14:22:00,
2013-07-11 09:27:00,78.5,63.0,29.76,North,0,0.0,0.0,59,0.00,,,0.00,WUHU216HW,2013-07-11 14:27:00,
2013-07-11 09:32:00,78.8,62.8,29.76,North,0,0.0,0.0,58,0.00,,,0.00,WUHU216HW,2013-07-11 14:32:00,
2013-07-11 09:37:00,79.0,62.5,29.76,North,0,0.0,0.0,57,0.00,,,0.00,WUHU216HW,2013-07-11 14:37:00,
2013-07-11 09:42:00,79.2,62.6,29.76,North,0,0.0,0.0,57,0.00,,,0.00,WUHU216HW,2013-07-11 14:42:00,
2013-07-11 09:47:00,78.8,62.4,29.76,North,0,0.0,0.0,57,0.00,,,0.00,WUHU216HW,2013-07-11 14:47:00,
2013-07-11 09:52:00,79.2,62.6,29.76,North,0,0.0,0.0,57,0.00,,,0.00,WUHU216HW,2013-07-11 14:52:00,
2013-07-11 09:57:00,79.2,62.6,29.77,North,0,0.0,0.0,57,0.00,,,0.00,WUHU216HW,2013-07-11 14:57:00,
2013-07-11 10:02:00,78.8,62.4,29.77,North,0,0.0,0.0,57,0.00,,,0.00,WUHU216HW,2013-07-11 15:02:00,
2013-07-11 10:07:00,79.0,63.0,29.76,North,0,0.0,0.0,58,0.00,,,0.00,WUHU216HW,2013-07-11 15:07:00,
2013-07-11 10:12:00,79.6,63.6,29.76,North,0,0.0,0.0,58,0.00,,,0.00,WUHU216HW,2013-07-11 15:12:00,
2013-07-11 10:17:00,80.1,63.5,29.77,North,0,0.0,0.0,57,0.00,,,0.00,WUHU216HW,2013-07-11 15:17:00,
2013-07-11 10:22:00,80.5,63.3,29.77,North,0,0.0,0.0,56,0.00,,,0.00,WUHU216HW,2013-07-11 15:22:00,
2013-07-11 10:27:00,80.8,63.6,29.77,North,0,0.0,0.0,56,0.00,,,0.00,WUHU216HW,2013-07-11 15:27:00,
2013-07-11 10:32:00,81.2,63.9,29.76,North,0,0.0,0.0,56,0.00,,,0.00,WUHU216HW,2013-07-11 15:32:00,
2013-07-11 10:37:00,81.7,63.9,29.77,North,0,0.0,0.0,55,0.00,,,0.00,WUHU216HW,2013-07-11 15:37:00,
2013-07-11 10:42:00,82.1,63.7,29.77,North,0,0.0,0.0,54,0.00,,,0.00,WUHU216HW,2013-07-11 15:42:00,
2013-07-11 10:47:00,82.1,63.2,29.77,North,0,0.0,0.0,53,0.00,,,0.00,WUHU216HW,2013-07-11 15:47:00,
2013-07-11 10:52:00,82.1,63.2,29.77,North,0,0.0,0.0,53,0.00,,,0.00,WUHU216HW,2013-07-11 15:52:00,
2013-07-11 10:57:00,82.3,63.4,29.76,North,0,0.0,0.0,53,0.00,,,0.00,WUHU216HW,2013-07-11 15:57:00,
2013-07-11 11:02:00,82.3,62.8,29.77,North,0,0.0,0.0,52,0.00,,,0.00,WUHU216HW,2013-07-11 16:02:00,
2013-07-11 11:08:00,82.3,62.8,29.76,North,0,0.0,0.0,52,0.00,,,0.00,WUHU216HW,2013-07-11 16:08:00,
2013-07-11 11:13:00,82.3,62.3,29.77,North,0,0.0,0.0,51,0.00,,,0.00,WUHU216HW,2013-07-11 16:13:00,
2013-07-11 11:18:00,82.1,62.1,29.77,North,0,0.0,0.0,51,0.00,,,0.00,WUHU216HW,2013-07-11 16:18:00,
2013-07-11 11:24:00,81.9,61.9,29.77,North,0,0.0,0.0,51,0.00,,,0.00,WUHU216HW,2013-07-11 16:24:00,
2013-07-11 11:29:00,82.1,62.6,29.77,North,0,0.0,0.0,52,0.00,,,0.00,WUHU216HW,2013-07-11 16:29:00,
2013-07-11 11:34:00,82.3,62.8,29.76,North,0,0.0,0.0,52,0.00,,,0.00,WUHU216HW,2013-07-11 16:34:00,
2013-07-11 11:39:00,82.4,63.0,29.76,North,0,0.0,0.0,52,0.00,,,0.00,WUHU216HW,2013-07-11 16:39:00,
2013-07-11 11:44:00,83.0,63.6,29.76,North,0,0.0,0.0,52,0.00,,,0.00,WUHU216HW,2013-07-11 16:44:00,
2013-07-11 11:49:00,83.2,63.2,29.76,North,0,0.0,0.0,51,0.00,,,0.00,WUHU216HW,2013-07-11 16:49:00,
2013-07-11 11:54:00,83.3,63.4,29.76,North,0,0.0,0.0,51,0.00,,,0.00,WUHU216HW,2013-07-11 16:54:00,
2013-07-11 11:59:00,83.5,61.7,29.76,North,0,0.0,0.0,48,0.00,,,0.00,WUHU216HW,2013-07-11 16:59:00,
2013-07-11 12:04:00,83.2,61.4,29.76,North,0,0.0,0.0,48,0.00,,,0.00,WUHU216HW,2013-07-11 17:04:00,
2013-07-11 12:09:00,82.8,61.0,29.76,North,0,0.0,0.0,48,0.00,,,0.00,WUHU216HW,2013-07-11 17:09:00,
2013-07-11 12:14:00,82.8,61.7,29.76,North,0,0.0,0.0,49,0.00,,,0.00,WUHU216HW,2013-07-11 17:14:00,
2013-07-11 12:19:00,82.6,62.1,29.75,North,0,0.0,0.0,50,0.00,,,0.00,WUHU216HW,2013-07-11 17:19:00,
2013-07-11 12:24:00,82.8,62.3,29.75,North,0,0.0,0.0,50,0.00,,,0.00,WUHU216HW,2013-07-11 17:24:00,
2013-07-11 12:29:00,83.2,62.6,29.75,North,0,0.0,0.0,50,0.00,,,0.00,WUHU216HW,2013-07-11 17:29:00,
2013-07-11 12:34:00,83.2,62.6,29.75,North,0,0.0,0.0,50,0.00,,,0.00,WUHU216HW,2013-07-11 17:34:00,
2013-07-11 12:39:00,83.3,62.8,29.75,North,0,0.0,0.0,50,0.00,,,0.00,WUHU216HW,2013-07-11 17:39:00,
2013-07-11 12:44:00,83.3,62.8,29.74,North,0,0.0,0.0,50,0.00,,,0.00,WUHU216HW,2013-07-11 17:44:00,
2013-07-11 12:49:00,83.3,62.2,29.74,North,0,0.0,0.0,49,0.00,,,0.00,WUHU216HW,2013-07-11 17:49:00,
2013-07-11 12:54:00,83.3,61.6,29.74,North,0,0.0,0.0,48,0.00,,,0.00,WUHU216HW,2013-07-11 17:54:00,
2013-07-11 12:59:00,83.3,61.6,29.74,North,0,0.0,0.0,48,0.00,,,0.00,WUHU216HW,2013-07-11 17:59:00,
2013-07-11 13:04:00,83.7,61.9,29.74,North,0,0.0,0.0,48,0.00,,,0.00,WUHU216HW,2013-07-11 18:04:00,
2013-07-11 13:09:00,84.1,62.3,29.73,North,0,0.0,0.0,48,0.00,,,0.00,WUHU216HW,2013-07-11 18:09:00,
2013-07-11 13:14:00,84.2,62.5,29.73,North,0,0.0,0.0,48,0.00,,,0.00,WUHU216HW,2013-07-11 18:14:00,
2013-07-11 13:19:00,84.6,63.5,29.73,North,0,0.0,0.0,49,0.00,,,0.00,WUHU216HW,2013-07-11 18:19:00,
2013-07-11 13:24:00,84.4,62.0,29.72,North,0,0.0,0.0,47,0.00,,,0.00,WUHU216HW,2013-07-11 18:24:00,
2013-07-11 13:29:00,84.6,63.5,29.72,North,0,0.0,0.0,49,0.00,,,0.00,WUHU216HW,2013-07-11 18:29:00,
2013-07-11 13:34:00,84.6,62.2,29.72,North,0,0.0,0.0,47,0.00,,,0.00,WUHU216HW,2013-07-11 18:34:00,
2013-07-11 13:39:00,84.6,63.5,29.72,North,0,0.0,0.0,49,0.00,,,0.00,WUHU216HW,2013-07-11 18:39:00,
2013-07-11 13:45:00,84.8,62.3,29.72,North,0,0.0,0.0,47,0.00,,,0.00,WUHU216HW,2013-07-11 18:45:00,
2013-07-11 13:50:00,84.6,62.2,29.71,North,0,0.0,0.0,47,0.00,,,0.00,WUHU216HW,2013-07-11 18:50:00,
2013-07-11 13:55:00,84.6,63.5,29.71,North,0,0.0,0.0,49,0.00,,,0.00,WUHU216HW,2013-07-11 18:55:00,
2013-07-11 14:00:00,84.8,63.5,29.71,North,0,0.0,0.0,49,0.00,,,0.00,WUHU216HW,2013-07-11 19:00:00,
2013-07-11 14:05:00,84.8,62.3,29.71,North,0,0.0,0.0,47,0.00,,,0.00,WUHU216HW,2013-07-11 19:05:00,
2013-07-11 14:10:00,85.0,63.7,29.71,North,0,0.0,0.0,49,0.00,,,0.00,WUHU216HW,2013-07-11 19:10:00,
2013-07-11 14:15:00,85.0,62.5,29.72,North,0,0.0,0.0,47,0.00,,,0.00,WUHU216HW,2013-07-11 19:15:00,
2013-07-11 14:20:00,85.0,62.5,29.72,North,0,0.0,0.0,47,0.00,,,0.00,WUHU216HW,2013-07-11 19:20:00,
2013-07-11 14:25:00,85.0,63.7,29.72,North,0,0.0,0.0,49,0.00,,,0.00,WUHU216HW,2013-07-11 19:25:00,
2013-07-11 14:31:00,85.1,63.9,29.72,North,0,0.0,0.0,49,0.00,,,0.00,WUHU216HW,2013-07-11 19:31:00,
2013-07-11 14:36:00,85.1,62.6,29.71,North,0,0.0,0.0,47,0.00,,,0.00,WUHU216HW,2013-07-11 19:36:00,
2013-07-11 14:41:00,85.1,62.0,29.71,North,0,0.0,0.0,46,0.00,,,0.00,WUHU216HW,2013-07-11 19:41:00,
2013-07-11 14:46:00,84.6,62.2,29.71,North,0,0.0,0.0,47,0.00,,,0.00,WUHU216HW,2013-07-11 19:46:00,
2013-07-11 14:52:00,85.0,62.5,29.71,North,0,0.0,0.0,47,0.00,,,0.00,WUHU216HW,2013-07-11 19:52:00,
2013-07-11 14:57:00,85.0,62.5,29.71,North,0,0.0,0.0,47,0.00,,,0.00,WUHU216HW,2013-07-11 19:57:00,
2013-07-11 15:02:00,85.1,63.3,29.71,North,0,0.0,0.0,48,0.00,,,0.00,WUHU216HW,2013-07-11 20:02:00,
2013-07-11 15:07:00,85.1,63.3,29.71,North,0,0.0,0.0,48,0.00,,,0.00,WUHU216HW,2013-07-11 20:07:00,
2013-07-11 15:12:00,85.0,62.5,29.71,North,0,0.0,0.0,47,0.00,,,0.00,WUHU216HW,2013-07-11 20:12:00,
2013-07-11 15:17:00,85.1,62.6,29.70,North,0,0.0,0.0,47,0.00,,,0.00,WUHU216HW,2013-07-11 20:17:00,
2013-07-11 15:22:00,85.1,63.3,29.71,North,0,0.0,0.0,48,0.00,,,0.00,WUHU216HW,2013-07-11 20:22:00,
2013-07-11 15:27:00,85.3,63.5,29.71,North,0,0.0,0.0,48,0.00,,,0.00,WUHU216HW,2013-07-11 20:27:00,
2013-07-11 15:32:00,85.3,62.8,29.71,North,0,0.0,0.0,47,0.00,,,0.00,WUHU216HW,2013-07-11 20:32:00,
2013-07-11 15:37:00,85.0,61.8,29.70,North,0,0.0,0.0,46,0.00,,,0.00,WUHU216HW,2013-07-11 20:37:00,
2013-07-11 15:43:00,85.0,61.8,29.70,North,0,0.0,0.0,46,0.00,,,0.00,WUHU216HW,2013-07-11 20:43:00,
2013-07-11 15:49:00,85.0,61.8,29.70,North,0,0.0,0.0,46,0.00,,,0.00,WUHU216HW,2013-07-11 20:49:00,
2013-07-11 15:54:00,85.0,62.5,29.70,North,0,0.0,0.0,47,0.00,,,0.00,WUHU216HW,2013-07-11 20:54:00,
2013-07-11 15:59:00,85.1,63.3,29.70,North,0,0.0,0.0,48,0.00,,,0.00,WUHU216HW,2013-07-11 20:59:00,
2013-07-11 16:04:00,85.3,63.5,29.70,North,0,0.0,0.0,48,0.00,,,0.00,WUHU216HW,2013-07-11 21:04:00,
2013-07-11 16:09:00,85.3,63.5,29.69,North,0,0.0,0.0,48,0.00,,,0.00,WUHU216HW,2013-07-11 21:09:00,
2013-07-11 16:14:00,85.3,63.5,29.69,North,0,0.0,0.0,48,0.00,,,0.00,WUHU216HW,2013-07-11 21:14:00,
2013-07-11 16:20:00,85.1,63.3,29.69,North,0,0.0,0.0,48,0.00,,,0.00,WUHU216HW,2013-07-11 21:20:00,
2013-07-11 16:25:00,85.0,62.5,29.69,North,0,0.0,0.0,47,0.00,,,0.00,WUHU216HW,2013-07-11 21:25:00,
2013-07-11 16:30:00,85.0,62.5,29.69,North,0,0.0,0.0,47,0.00,,,0.00,WUHU216HW,2013-07-11 21:30:00,
2013-07-11 16:35:00,85.0,63.7,29.69,North,0,0.0,0.0,49,0.00,,,0.00,WUHU216HW,2013-07-11 21:35:00,
2013-07-11 16:40:00,85.1,63.9,29.69,North,0,0.0,0.0,49,0.00,,,0.00,WUHU216HW,2013-07-11 21:40:00,
2013-07-11 16:45:00,85.1,63.9,29.68,North,0,0.0,0.0,49,0.00,,,0.00,WUHU216HW,2013-07-11 21:45:00,
2013-07-11 16:50:00,85.1,63.9,29.68,North,0,0.0,0.0,49,0.00,,,0.00,WUHU216HW,2013-07-11 21:50:00,
2013-07-11 16:55:00,85.0,63.7,29.68,North,0,0.0,0.0,49,0.00,,,0.00,WUHU216HW,2013-07-11 21:55:00,
2013-07-11 17:00:00,85.0,63.7,29.68,North,0,0.0,0.0,49,0.00,,,0.00,WUHU216HW,2013-07-11 22:00:00,
2013-07-11 17:05:00,85.0,63.7,29.68,North,0,0.0,0.0,49,0.00,,,0.00,WUHU216HW,2013-07-11 22:05:00,
2013-07-11 17:10:00,85.0,63.7,29.68,North,0,0.0,0.0,49,0.00,,,0.00,WUHU216HW,2013-07-11 22:10:00,
2013-07-11 17:15:00,85.1,63.9,29.68,North,0,0.0,0.0,49,0.00,,,0.00,WUHU216HW,2013-07-11 22:15:00,
2013-07-11 17:20:00,85.0,62.5,29.68,North,0,0.0,0.0,47,0.00,,,0.00,WUHU216HW,2013-07-11 22:20:00,
2013-07-11 17:25:00,84.8,63.5,29.68,North,0,0.0,0.0,49,0.00,,,0.00,WUHU216HW,2013-07-11 22:25:00,
2013-07-11 17:30:00,84.8,63.5,29.67,North,0,0.0,0.0,49,0.00,,,0.00,WUHU216HW,2013-07-11 22:30:00,
2013-07-11 17:35:00,84.8,63.5,29.67,North,0,0.0,0.0,49,0.00,,,0.00,WUHU216HW,2013-07-11 22:35:00,
2013-07-11 17:40:00,84.8,63.5,29.67,North,0,0.0,0.0,49,0.00,,,0.00,WUHU216HW,2013-07-11 22:40:00,
2013-07-11 17:45:00,84.8,63.5,29.66,North,0,0.0,0.0,49,0.00,,,0.00,WUHU216HW,2013-07-11 22:45:00,
2013-07-11 17:50:00,84.8,63.5,29.66,North,0,0.0,0.0,49,0.00,,,0.00,WUHU216HW,2013-07-11 22:50:00,
2013-07-11 17:56:00,84.8,63.5,29.66,North,0,0.0,0.0,49,0.00,,,0.00,WUHU216HW,2013-07-11 22:56:00,
2013-07-11 18:01:00,84.8,63.5,29.66,North,0,0.0,0.0,49,0.00,,,0.00,WUHU216HW,2013-07-11 23:01:00,
2013-07-11 18:06:00,84.6,64.1,29.66,North,0,0.0,0.0,50,0.00,,,0.00,WUHU216HW,2013-07-11 23:06:00,
2013-07-11 18:11:00,84.6,63.5,29.66,North,0,0.0,0.0,49,0.00,,,0.00,WUHU216HW,2013-07-11 23:11:00,
2013-07-11 18:16:00,84.4,63.3,29.66,North,0,0.0,0.0,49,0.00,,,0.00,WUHU216HW,2013-07-11 23:16:00,
2013-07-11 18:21:00,84.6,64.1,29.65,North,0,0.0,0.0,50,0.00,,,0.00,WUHU216HW,2013-07-11 23:21:00,
2013-07-11 18:26:00,84.6,64.1,29.66,North,0,0.0,0.0,50,0.00,,,0.00,WUHU216HW,2013-07-11 23:26:00,
2013-07-11 18:31:00,84.6,63.5,29.66,North,0,0.0,0.0,49,0.00,,,0.00,WUHU216HW,2013-07-11 23:31:00,
2013-07-11 18:37:00,84.4,62.0,29.65,North,0,0.0,0.0,47,0.00,,,0.00,WUHU216HW,2013-07-11 23:37:00,
2013-07-11 18:42:00,84.4,62.7,29.65,North,0,0.0,0.0,48,0.00,,,0.00,WUHU216HW,2013-07-11 23:42:00,
2013-07-11 18:47:00,84.2,62.5,29.65,North,0,0.0,0.0,48,0.00,,,0.00,WUHU216HW,2013-07-11 23:47:00,
2013-07-11 18:52:00,84.2,62.5,29.65,North,0,0.0,0.0,48,0.00,,,0.00,WUHU216HW,2013-07-11 23:52:00,
2013-07-11 18:57:00,84.1,62.3,29.65,North,0,0.0,0.0,48,0.00,,,0.00,WUHU216HW,2013-07-11 23:57:00,
2013-07-11 19:02:00,83.9,62.1,29.65,North,0,0.0,0.0,48,0.00,,,0.00,WUHU216HW,2013-07-12 00:02:00,
2013-07-11 19:07:00,83.7,61.9,29.65,North,0,0.0,0.0,48,0.00,,,0.00,WUHU216HW,2013-07-12 00:07:00,
2013-07-11 19:12:00,83.5,61.7,29.65,North,0,0.0,0.0,48,0.00,,,0.00,WUHU216HW,2013-07-12 00:12:00,
2013-07-11 19:17:00,83.5,61.7,29.65,North,0,0.0,0.0,48,0.00,,,0.00,WUHU216HW,2013-07-12 00:17:00,
2013-07-11 19:22:00,83.3,61.6,29.65,North,0,0.0,0.0,48,0.00,,,0.00,WUHU216HW,2013-07-12 00:22:00,
2013-07-11 19:27:00,83.3,61.6,29.64,North,0,0.0,0.0,48,0.00,,,0.00,WUHU216HW,2013-07-12 00:27:00,
2013-07-11 19:33:00,83.2,62.0,29.64,North,0,0.0,0.0,49,0.00,,,0.00,WUHU216HW,2013-07-12 00:33:00,
2013-07-11 19:38:00,83.0,61.8,29.64,North,0,0.0,0.0,49,0.00,,,0.00,WUHU216HW,2013-07-12 00:38:00,
2013-07-11 19:43:00,83.0,61.8,29.64,North,0,0.0,0.0,49,0.00,,,0.00,WUHU216HW,2013-07-12 00:43:00,
2013-07-11 19:48:00,82.8,61.7,29.64,North,0,0.0,0.0,49,0.00,,,0.00,WUHU216HW,2013-07-12 00:48:00,
2013-07-11 19:53:00,82.8,61.7,29.64,North,0,0.0,0.0,49,0.00,,,0.00,WUHU216HW,2013-07-12 00:53:00,
2013-07-11 19:58:00,82.6,61.5,29.64,North,0,0.0,0.0,49,0.00,,,0.00,WUHU216HW,2013-07-12 00:58:00,
2013-07-11 20:03:00,82.6,61.5,29.64,North,0,0.0,0.0,49,0.00,,,0.00,WUHU216HW,2013-07-12 01:03:00,
2013-07-11 20:08:00,82.4,61.9,29.64,North,0,0.0,0.0,50,0.00,,,0.00,WUHU216HW,2013-07-12 01:08:00,
2013-07-11 20:13:00,82.3,61.7,29.64,North,0,0.0,0.0,50,0.00,,,0.00,WUHU216HW,2013-07-12 01:13:00,
2013-07-11 20:19:00,82.1,61.6,29.64,North,0,0.0,0.0,50,0.00,,,0.00,WUHU216HW,2013-07-12 01:19:00,
2013-07-11 20:24:00,81.9,61.5,29.64,North,0,0.0,0.0,50,0.00,,,0.00,WUHU216HW,2013-07-12 01:24:00,
2013-07-11 20:29:00,81.7,61.3,29.64,North,0,0.0,0.0,50,0.00,,,0.00,WUHU216HW,2013-07-12 01:29:00,
2013-07-11 20:34:00,81.4,61.5,29.64,North,0,0.0,0.0,51,0.00,,,0.00,WUHU216HW,2013-07-12 01:34:00,
2013-07-11 20:39:00,81.2,61.3,29.64,North,0,0.0,0.0,51,0.00,,,0.00,WUHU216HW,2013-07-12 01:39:00,
2013-07-11 20:44:00,81.0,61.7,29.64,North,0,0.0,0.0,52,0.00,,,0.00,WUHU216HW,2013-07-12 01:44:00,
2013-07-11 20:49:00,80.6,61.4,29.64,North,0,0.0,0.0,52,0.00,,,0.00,WUHU216HW,2013-07-12 01:49:00,
2013-07-11 20:54:00,80.6,61.8,29.64,North,0,0.0,0.0,53,0.00,,,0.00,WUHU216HW,2013-07-12 01:54:00,
2013-07-11 20:59:00,80.3,61.6,29.64,North,0,0.0,0.0,53,0.00,,,0.00,WUHU216HW,2013-07-12 01:59:00,
2013-07-11 21:04:00,80.1,61.4,29.64,North,0,0.0,0.0,53,0.00,,,0.00,WUHU216HW,2013-07-12 02:04:00,
2013-07-11 21:09:00,79.7,61.6,29.64,North,0,0.0,0.0,54,0.00,,,0.00,WUHU216HW,2013-07-12 02:09:00,
2013-07-11 21:14:00,79.6,61.9,29.64,North,0,0.0,0.0,55,0.00,,,0.00,WUHU216HW,2013-07-12 02:14:00,
2013-07-11 21:19:00,79.4,61.7,29.64,North,0,0.0,0.0,55,0.00,,,0.00,WUHU216HW,2013-07-12 02:19:00,
2013-07-11 21:24:00,79.2,61.7,29.64,North,0,0.0,0.0,55,0.00,,,0.00,WUHU216HW,2013-07-12 02:24:00,
2013-07-11 21:29:00,79.0,62.0,29.64,North,0,0.0,0.0,56,0.00,,,0.00,WUHU216HW,2013-07-12 02:29:00,
2013-07-11 21:34:00,78.8,61.8,29.64,North,0,0.0,0.0,56,0.00,,,0.00,WUHU216HW,2013-07-12 02:34:00,
2013-07-11 21:39:00,78.8,61.8,29.65,North,0,0.0,0.0,56,0.00,,,0.00,WUHU216HW,2013-07-12 02:39:00,
2013-07-11 21:44:00,78.5,62.0,29.65,North,0,0.0,0.0,57,0.00,,,0.00,WUHU216HW,2013-07-12 02:44:00,
2013-07-11 21:49:00,78.5,62.0,29.65,North,0,0.0,0.0,57,0.00,,,0.00,WUHU216HW,2013-07-12 02:49:00,
2013-07-11 21:54:00,78.1,61.7,29.65,North,0,0.0,0.0,57,0.00,,,0.00,WUHU216HW,2013-07-12 02:54:00,
2013-07-11 22:00:00,78.1,61.7,29.65,North,0,0.0,0.0,57,0.00,,,0.00,WUHU216HW,2013-07-12 03:00:00,
2013-07-11 22:05:00,77.9,61.5,29.65,North,0,0.0,0.0,57,0.00,,,0.00,WUHU216HW,2013-07-12 03:05:00,
2013-07-11 22:10:00,77.8,61.8,29.65,North,0,0.0,0.0,58,0.00,,,0.00,WUHU216HW,2013-07-12 03:10:00,
2013-07-11 22:15:00,77.4,61.5,29.65,North,0,0.0,0.0,58,0.00,,,0.00,WUHU216HW,2013-07-12 03:15:00,
2013-07-11 22:20:00,77.4,61.5,29.65,North,0,0.0,0.0,58,0.00,,,0.00,WUHU216HW,2013-07-12 03:20:00,
2013-07-11 22:25:00,77.2,61.3,29.65,North,0,0.0,0.0,58,0.00,,,0.00,WUHU216HW,2013-07-12 03:25:00,
2013-07-11 22:30:00,77.2,61.3,29.65,North,0,0.0,0.0,58,0.00,,,0.00,WUHU216HW,2013-07-12 03:30:00,
2013-07-11 22:35:00,77.0,61.1,29.66,North,0,0.0,0.0,58,0.00,,,0.00,WUHU216HW,2013-07-12 03:35:00,
2013-07-11 22:40:00,77.0,61.6,29.66,North,0,0.0,0.0,59,0.00,,,0.00,WUHU216HW,2013-07-12 03:40:00,
2013-07-11 22:45:00,76.9,61.5,29.66,North,0,0.0,0.0,59,0.00,,,0.00,WUHU216HW,2013-07-12 03:45:00,
2013-07-11 22:50:00,76.9,60.9,29.66,North,0,0.0,0.0,58,0.00,,,0.00,WUHU216HW,2013-07-12 03:50:00,
2013-07-11 22:55:00,77.0,61.1,29.66,North,0,0.0,0.0,58,0.00,,,0.00,WUHU216HW,2013-07-12 03:55:00,
2013-07-11 23:00:00,77.0,61.1,29.66,North,0,0.0,0.0,58,0.00,,,0.00,WUHU216HW,2013-07-12 04:00:00,
2013-07-11 23:05:00,76.7,60.8,29.67,North,0,0.0,0.0,58,0.00,,,0.00,WUHU216HW,2013-07-12 04:05:00,
2013-07-11 23:10:00,76.5,60.6,29.66,North,0,0.0,0.0,58,0.00,,,0.00,WUHU216HW,2013-07-12 04:10:00,
2013-07-11 23:15:00,76.3,60.9,29.66,North,0,0.0,0.0,59,0.00,,,0.00,WUHU216HW,2013-07-12 04:15:00,
2013-07-11 23:20:00,76.1,60.8,29.66,North,0,0.0,0.0,59,0.00,,,0.00,WUHU216HW,2013-07-12 04:20:00,
2013-07-11 23:25:00,75.8,60.5,29.67,North,0,0.0,0.0,59,0.00,,,0.00,WUHU216HW,2013-07-12 04:25:00,
2013-07-11 23:30:00,75.4,60.7,29.67,North,0,0.0,0.0,60,0.00,,,0.00,WUHU216HW,2013-07-12 04:30:00,
2013-07-11 23:36:00,75.2,60.5,29.67,North,0,0.0,0.0,60,0.00,,,0.00,WUHU216HW,2013-07-12 04:36:00,
2013-07-11 23:41:00,75.1,60.3,29.67,North,0,0.0,0.0,60,0.00,,,0.00,WUHU216HW,2013-07-12 04:41:00,
2013-07-11 23:46:00,75.1,60.3,29.67,North,0,0.0,0.0,60,0.00,,,0.00,WUHU216HW,2013-07-12 04:46:00,
2013-07-11 23:51:00,74.7,60.4,29.67,North,0,0.0,0.0,61,0.00,,,0.00,WUHU216HW,2013-07-12 04:51:00,
2013-07-11 23:56:00,74.7,60.4,29.67,North,0,0.0,0.0,61,0.00,,,0.00,WUHU216HW,2013-07-12 04:56:00,